Weather History for Lexington, NE

Change the Weather History Date:

Thursday, February 7, 2013

  Actual Average Record
Temperature  
Mean Temperature 42 °F -  
Max Temperature 55 °F 38 °F 68 °F (1999)
Min Temperature 27 °F 16 °F -9 °F (2004)
Degree Days  
Heating Degree Days 24    
Moisture  
Dew Point 24 °F    
Average Humidity 56    
Maximum Humidity 86    
Minimum Humidity 23    
Precipitation  
Precipitation 0.00 in - - ()
Sea Level Pressure  
Sea Level Pressure 30.08 in    
Wind  
Wind Speed 11 mph (NNW)    
Max Wind Speed 17 mph    
Max Gust Speed 23 mph    
Visibility 10 miles    
Events      
Averages and records for this station are not official NWS values.
T = Trace of Precipitation, MM = Missing Value Source: NWS Daily Summary

Daily Weather History Graph

Daily Weather History Graph

Search for Another Location

Airport:

Trip Planner

Search our weather history database for the weather conditions in past years. The results will help you decide how hot, cold, wet, or windy it might be!

Date:

Astronomy

Feb. 07, 2013 Rise Set
Actual Time 7:42 AM CST 6:04 PM CST
Civil Twilight 7:14 AM CST 6:33 PM CST
Nautical Twilight 6:41 AM CST 7:05 PM CST
Astronomical Twilight 6:09 AM CST 7:37 PM CST
Moon 5:24 AM CST (2/7) 3:30 PM CST (2/7)
Length of Visible Light 11h 18m
Length of Day
10h 21m
Waning Crescent, 9% of the Moon is Illuminated
Feb 7
Waning Crescent
Feb 10
New
Feb 17
First Quarter
Feb 25
Full
Mar 4
Last Quarter

Hourly Weather History & Observations

Time (CST) Temp. Windchill Dew Point Humidity Pressure Visibility Wind Dir Wind Speed Gust Speed Precip Events Conditions
12:35 AM 42.1 °F 34.9 °F 29.3 °F 61% 29.96 in 10.0 mi North 13.8 mph - N/A   Overcast
12:55 AM 42.1 °F 34.9 °F 29.5 °F 61% 29.96 in 10.0 mi North 13.8 mph - N/A   Overcast
1:15 AM 41.2 °F 35.0 °F 29.3 °F 63% 29.97 in 10.0 mi North 10.4 mph - N/A   Mostly Cloudy
1:35 AM 41.2 °F 33.7 °F 29.1 °F 62% 29.97 in 10.0 mi North 13.8 mph - N/A   Scattered Clouds
1:55 AM 41.4 °F 34.7 °F 28.8 °F 61% 29.98 in 10.0 mi North 11.5 mph - N/A   Scattered Clouds
2:15 AM 41.2 °F 34.5 °F 28.9 °F 62% 29.98 in 10.0 mi North 11.5 mph - N/A   Mostly Cloudy
2:35 AM 41.0 °F 34.7 °F 28.8 °F 62% 29.98 in 10.0 mi North 10.4 mph - N/A   Scattered Clouds
2:55 AM 40.5 °F 33.2 °F 28.8 °F 63% 29.99 in 10.0 mi North 12.7 mph - N/A   Scattered Clouds
3:15 AM 40.5 °F 33.6 °F 28.9 °F 64% 29.99 in 10.0 mi North 11.5 mph - N/A   Mostly Cloudy
3:35 AM 40.3 °F 33.4 °F 28.9 °F 64% 30.00 in 10.0 mi North 11.5 mph - N/A   Mostly Cloudy
3:55 AM 39.2 °F 32.5 °F 28.4 °F 65% 29.99 in 10.0 mi NNW 10.4 mph - N/A   Overcast
4:15 AM 38.7 °F 32.9 °F 28.2 °F 66% 30.00 in 10.0 mi NNW 8.1 mph - N/A   Mostly Cloudy
4:35 AM 38.3 °F 30.9 °F 28.0 °F 67% 30.00 in 10.0 mi NW 11.5 mph - N/A   Scattered Clouds
4:55 AM 36.1 °F 29.9 °F 27.5 °F 71% 30.01 in 10.0 mi NW 8.1 mph - N/A   Clear
5:15 AM 34.0 °F 26.6 °F 26.6 °F 74% 30.01 in 10.0 mi NW 9.2 mph - N/A   Clear
5:35 AM 33.1 °F 24.4 °F 27.1 °F 79% 30.02 in 10.0 mi NW 11.5 mph - N/A   Clear
5:55 AM 33.1 °F 25.5 °F 26.8 °F 78% 30.03 in 10.0 mi WNW 9.2 mph - N/A   Clear
6:15 AM 31.8 °F 23.3 °F 26.4 °F 80% 30.03 in 10.0 mi WNW 10.4 mph - N/A   Clear
6:35 AM 31.3 °F 22.7 °F 25.9 °F 80% 30.04 in 10.0 mi WNW 10.4 mph - N/A   Clear
6:55 AM 30.7 °F 22.6 °F 26.1 °F 83% 30.04 in 10.0 mi WNW 9.2 mph - N/A   Clear
7:15 AM 30.2 °F 21.3 °F 25.9 °F 84% 30.05 in 10.0 mi WNW 10.4 mph - N/A   Clear
7:35 AM 31.1 °F 21.9 °F 26.6 °F 83% 30.06 in 10.0 mi NW 11.5 mph - N/A   Clear
7:55 AM 30.0 °F 22.4 °F 25.7 °F 84% 30.06 in 10.0 mi NW 8.1 mph - N/A   Clear
8:15 AM 30.0 °F 21.1 °F 25.9 °F 85% 30.08 in 10.0 mi NW 10.4 mph - N/A   Clear
8:35 AM 30.0 °F 21.7 °F 26.2 °F 86% 30.09 in 10.0 mi WNW 9.2 mph - N/A   Clear
8:55 AM 32.2 °F 24.4 °F 27.1 °F 82% 30.10 in 10.0 mi NW 9.2 mph - N/A   Clear
9:15 AM 34.7 °F 28.8 °F 28.0 °F 77% 30.11 in 10.0 mi WNW 6.9 mph - N/A   Clear
9:35 AM 36.7 °F 29.9 °F 28.6 °F 72% 30.11 in 10.0 mi WNW 9.2 mph - N/A   Clear
9:55 AM 37.6 °F 32.3 °F 28.9 °F 71% 30.11 in 10.0 mi WNW 6.9 mph - N/A   Clear
10:15 AM 41.2 °F 36.6 °F 29.8 °F 64% 30.11 in 10.0 mi WNW 6.9 mph - N/A   Clear
10:35 AM 45.1 °F 40.8 °F 29.8 °F 55% 30.12 in 10.0 mi NW 8.1 mph - N/A   Clear
10:55 AM 46.8 °F - 29.5 °F 51% 30.12 in 10.0 mi WNW 12.7 mph - N/A   Clear
11:15 AM 47.1 °F - 29.8 °F 51% 30.12 in 10.0 mi NW 9.2 mph - N/A   Clear
11:35 AM 50.2 °F - 26.2 °F 39% 30.11 in 10.0 mi NNW 12.7 mph - N/A   Clear
11:55 AM 51.1 °F - 25.3 °F 37% 30.11 in 10.0 mi North 10.4 mph - N/A   Clear
12:15 PM 51.8 °F - 25.3 °F 36% 30.11 in 10.0 mi North 11.5 mph - N/A   Clear
12:35 PM 52.3 °F - 24.8 °F 34% 30.11 in 10.0 mi North 16.1 mph 19.6 mph N/A   Clear
12:55 PM 53.4 °F - 24.6 °F 33% 30.10 in 10.0 mi North 11.5 mph 20.7 mph N/A   Clear
1:15 PM 53.1 °F - 23.0 °F 31% 30.09 in 10.0 mi NNW 15.0 mph 18.4 mph N/A   Clear
1:35 PM 53.8 °F - 22.5 °F 30% 30.09 in 10.0 mi North 15.0 mph 23.0 mph N/A   Clear
1:55 PM 53.8 °F - 23.2 °F 30% 30.08 in 10.0 mi NNW 16.1 mph 19.6 mph N/A   Clear
2:15 PM 54.9 °F - 20.5 °F 26% 30.08 in 10.0 mi NW 16.1 mph - N/A   Clear
2:35 PM 54.7 °F - 19.2 °F 25% 30.08 in 10.0 mi North 12.7 mph 23.0 mph N/A   Clear
2:55 PM 55.2 °F - 18.3 °F 24% 30.07 in 10.0 mi NW 17.3 mph 20.7 mph N/A   Clear
3:15 PM 55.2 °F - 17.8 °F 23% 30.08 in 10.0 mi NNW 13.8 mph 21.9 mph N/A   Clear
3:35 PM 55.2 °F - 18.5 °F 24% 30.07 in 10.0 mi NW 10.4 mph 19.6 mph N/A   Clear
3:55 PM 54.7 °F - 18.3 °F 24% 30.07 in 10.0 mi North 11.5 mph 16.1 mph N/A   Clear
4:15 PM 54.7 °F - 17.6 °F 23% 30.08 in 10.0 mi North 12.7 mph 16.1 mph N/A   Clear
4:35 PM 54.3 °F - 17.2 °F 23% 30.08 in 10.0 mi NNW 13.8 mph - N/A   Clear
4:55 PM 53.6 °F - 17.8 °F 24% 30.08 in 10.0 mi North 9.2 mph - N/A   Clear
5:15 PM 52.3 °F - 15.8 °F 24% 30.09 in 10.0 mi North 10.4 mph - N/A   Clear
5:35 PM 49.3 °F - 15.4 °F 26% 30.10 in 10.0 mi North 8.1 mph - N/A   Clear
5:55 PM 45.1 °F 41.4 °F 14.7 °F 29% 30.11 in 10.0 mi North 6.9 mph - N/A   Clear
6:15 PM 41.7 °F 37.3 °F 14.2 °F 33% 30.11 in 10.0 mi North 6.9 mph - N/A   Clear
6:35 PM 39.9 °F 35.1 °F 14.0 °F 35% 30.12 in 7.0 mi NNE 6.9 mph - N/A   Clear
6:55 PM 36.5 °F 31.8 °F 14.0 °F 40% 30.12 in 10.0 mi NNE 5.8 mph - N/A   Clear
7:15 PM 34.2 °F 29.0 °F 13.8 °F 43% 30.13 in 7.0 mi NNE 5.8 mph - N/A   Clear
7:35 PM 33.1 °F 26.9 °F 15.6 °F 49% 30.13 in 10.0 mi NE 6.9 mph - N/A   Clear
7:55 PM 32.4 °F 26.9 °F 15.4 °F 50% 30.14 in 10.0 mi ENE 5.8 mph - N/A   Clear
8:15 PM 32.9 °F - 16.3 °F 51% 30.14 in 10.0 mi Calm Calm - N/A   Clear
8:35 PM 32.7 °F - 16.2 °F 51% 30.15 in 10.0 mi Calm Calm - N/A   Clear
8:55 PM 31.3 °F 26.6 °F 15.8 °F 53% 30.16 in 10.0 mi East 4.6 mph - N/A   Clear
9:15 PM 31.8 °F 26.2 °F 19.9 °F 62% 30.17 in 10.0 mi East 5.8 mph - N/A   Clear
9:35 PM 30.7 °F 24.9 °F 21.6 °F 69% 30.17 in 10.0 mi ESE 5.8 mph - N/A   Clear
9:55 PM 30.4 °F 24.5 °F 22.5 °F 72% 30.17 in 10.0 mi ESE 5.8 mph - N/A   Clear
10:15 PM 31.8 °F 26.2 °F 24.4 °F 74% 30.18 in 10.0 mi ESE 5.8 mph - N/A   Clear
10:35 PM 30.2 °F 25.4 °F 23.7 °F 77% 30.18 in 10.0 mi SE 4.6 mph - N/A   Clear
10:55 PM 30.2 °F 24.3 °F 24.6 °F 80% 30.18 in 10.0 mi SE 5.8 mph - N/A   Clear
11:15 PM 29.8 °F 22.2 °F 25.2 °F 83% 30.18 in 10.0 mi ESE 8.1 mph - N/A   Clear
11:35 PM 28.6 °F 23.5 °F 24.6 °F 85% 30.18 in 10.0 mi ESE 4.6 mph - N/A   Clear
11:55 PM 27.5 °F 22.2 °F 23.7 °F 86% 30.18 in 10.0 mi ESE 4.6 mph - N/A   Clear